Zurück zum Katalog

SOLRAD 11A

AktivWissenschaftMEO
NORAD 8748·PAYLOAD·🇺🇸 United States

Gestartet Mar 15, 1976 von Cape Canaveral Space Force Station

Loading…

Nächste Überflüge (nächste 24 Stunden)

TLE

AktuellSource: Space-Track

Epoche: Sep 18, 2026, 07:30 UTC

1 08748U 76023C   26261.31275813 -.00000582  00000-0  00000-0 0  9998
2 08748  14.7052 358.9412 0065199 212.3796 345.1516  0.19680042  5640

Verfolge SOLRAD 11A in Echtzeit mit AllMySat

Download on the App Store